CAPE
0 0 0 0 0 0 0 0 0 0 84 1080 1268 1184 1023 940 740 619 507 538 1062 970 765 810 875 890 748 654 413 252 176 138 136 241 229 153 129 145 130 152 235 656 461 428 231 465 342 0 0
0 0 0 0 0 0 0 0 0 165 354 697 698 720 593 674 928 614 543 1031 1128 946 803 783 843 779 674 459 280 226 182 220 282 314 244 206 192 171 154 125 197 657 753 491 366 564 52 0 25
0 0 0 0 0 0 0 0 3 449 516 659 496 138 412 746 907 875 852 1107 1157 955 759 748 682 601 504 323 226 204 250 293 328 293 276 301 227 184 173 108 100 245 467 339 352 96 0 5 36
0 0 0 0 0 0 0 0 653 388 375 219 318 417 685 992 1226 1058 1144 1096 928 757 736 432 486 470 396 318 281 263 269 291 294 226 270 310 276 201 153 114 113 127 168 31 0 0 0 0 0
0 0 0 0 0 0 0 514 573 588 421 460 385 497 886 911 557 527 428 619 573 60 510 522 395 410 456 453 334 284 261 304 305 273 286 289 269 236 174 150 133 80 64 66 4 2 0 0 0
0 0 0 0 0 0 195 709 654 440 405 378 505 657 896 976 614 273 166 104 39 1 25 122 365 268 98 272 343 241 282 319 317 324 325 342 337 254 208 168 144 116 53 10 0 0 0 0 0
0 0 0 0 0 0 18 613 753 513 311 219 377 569 671 734 321 84 8 4 4 1 0 3 21 23 30 206 391 293 336 357 326 325 320 349 287 205 175 149 150 102 48 13 0 0 0 0 0
0 0 0 0 0 0 244 628 367 652 470 297 665 524 509 535 115 10 4 3 3 9 11 7 4 1 0 126 459 366 334 353 344 309 282 258 266 262 227 135 153 143 94 9 0 0 0 0 0
0 0 0 0 0 0 463 548 360 298 605 796 684 574 685 341 24 5 7 7 6 10 4 8 1 0 2 90 270 456 411 328 303 273 217 105 46 33 1 110 112 25 0 0 0 0 0 0 0
0 0 0 0 0 0 334 497 251 435 812 594 409 740 375 93 38 3 7 6 10 14 10 3 2 0 0 0 19 247 283 231 213 159 120 63 59 37 2 45 6 0 0 0 0 0 0 0 0
0 0 0 0 0 0 33 421 108 371 785 725 589 356 319 92 19 8 8 7 6 5 0 0 0 0 23 21 90 201 176 140 133 81 83 53 92 44 11 0 0 0 0 0 0 0 0 0 0
0 0 0 0 0 9 16 161 178 238 239 311 654 460 354 199 8 1 4 4 6 4 0 1 29 64 59 96 138 150 129 96 68 80 108 46 16 1 0 0 0 0 0 0 0 0 0 0 0
0 0 0 0 0 17 42 80 76 473 661 720 827 559 399 48 10 2 0 0 1 0 0 0 25 131 115 92 99 96 89 64 79 81 137 19 0 0 0 0 0 0 0 0 0 0 0 0 0
0 0 12 67 15 48 109 96 113 417 656 471 363 265 228 21 52 4 0 0 0 0 0 2 32 127 166 88 64 46 41 34 18 25 119 51 0 0 0 0 0 0 0 0 0 0 0 0 0
0 0 20 118 72 110 60 106 30 544 559 315 209 119 86 85 73 7 0 0 0 0 0 0 18 144 173 60 18 11 9 12 17 29 81 143 0 0 0 0 0 0 0 0 0 0 0 0 0
0 0 20 39 144 27 25 140 103 397 543 545 260 285 254 188 213 157 100 8 1 0 2 100 144 149 156 48 14 6 6 17 100 106 188 67 0 0 0 0 0 0 0 0 0 0 0 0 0
0 0 0 22 59 86 24 21 111 283 487 430 321 228 253 139 183 166 139 74 42 25 70 241 311 207 103 16 0 5 26 125 126 15 4 0 0 0 0 0 0 0 0 0 0 0 0 0 0
10 1 0 0 0 55 89 81 129 437 587 530 213 147 233 270 166 160 97 105 148 95 167 323 300 175 26 0 0 9 33 55 1 0 0 0 0 0 0 0 0 0 0 0 0 0 0 0 0
0 0 0 0 0 56 77 36 2 630 647 491 365 195 196 286 253 145 138 116 162 230 215 285 232 95 1 0 3 2 2 4 1 0 0 0 0 0 0 0 0 0 0 0 0 0 0 0 0
0 1 3 0 0 0 0 0 0 245 568 421 345 238 165 301 353 236 176 149 160 204 266 217 213 76 42 27 7 1 1 3 0 0 0 0 0 0 0 0 0 0 0 0 0 0 0 0 0
0 0 0 1 0 0 0 0 0 14 149 314 243 284 269 402 537 467 255 201 204 190 248 236 203 87 30 17 0 0 0 0 0 0 0 0 0 0 0 0 0 0 0 0 0 0 0 0 0
0 0 0 0 0 1 0 26 0 0 87 214 261 329 278 322 388 628 561 377 287 220 183 244 203 94 23 0 0 0 3 6 0 0 0 0 0 0 0 0 0 0 0 0 0 0 0 0 0
0 0 0 0 0 0 0 2 0 0 0 76 393 550 593 505 481 635 773 700 428 255 124 194 180 87 24 0 0 0 0 2 0 0 0 0 0 0 0 0 0 0 0 0 0 0 0 0 0
0 0 0 0 0 0 0 0 13 0 0 0 0 325 595 605 426 534 723 712 510 240 155 188 153 90 33 1 1 0 0 0 0 0 0 0 0 0 0 0 0 0 0 0 0 0 0 0 0
0 0 0 0 0 0 0 0 6 0 0 0 0 2 341 474 383 318 568 562 465 165 175 219 235 220 40 2 2 0 0 0 0 0 0 0 0 0 0 0 0 0 0 0 0 0 0 0 0
0 0 3 0 0 0 0 0 0 0 0 0 0 0 0 258 376 237 332 504 433 238 222 230 226 258 74 3 2 0 0 0 0 0 0 0 0 0 0 0 0 0 0 0 0 0 0 0 0
0 0 0 0 0 0 0 0 0 0 0 0 0 0 0 0 104 83 124 231 260 159 220 239 278 189 110 21 10 1 2 1 0 0 0 0 0 0 0 0 0 0 0 0 0 0 0 0 0
0 0 0 1 0 0 0 0 0 0 0 0 0 0 0 0 0 0 0 27 105 144 200 170 191 174 141 54 7 4 3 2 0 0 0 0 0 0 0 0 0 0 0 0 0 0 0 0 0
0 0 0 0 0 0 0 0 0 0 0 0 0 0 0 0 0 0 0 1 102 225 243 194 168 173 150 62 4 4 5 5 0 0 0 0 0 0 0 0 0 1 0 0 0 0 0 0 0
0 0 0 0 0 0 0 0 0 0 0 0 0 0 0 0 0 0 0 70 261 331 327 297 258 280 200 29 1 5 5 1 0 0 0 0 0 0 0 0 0 0 0 0 0 0 0 0 0
CIN
0 0 0 0 0 0 0 0 0 0 -106 -91 -76 -41 -27 -63 -54 -37 -154 -125 -24 -20 -36 -1 -1 -2 -13 -21 -56 -85 -102 -117 -114 -80 -59 -56 -34 -21 -30 -36 -35 0 -9 -11 -17 -1 -1 0 0
0 0 0 0 0 0 0 0 0 -124 -140 -155 -160 -91 -80 -26 -44 -86 -113 -23 -10 -16 -10 -1 -1 -1 -5 -25 -58 -79 -92 -89 -73 -47 -38 -26 -6 -10 -15 -34 -19 0 0 -3 -4 0 -61 0 -18
0 0 0 0 0 0 0 0 -67 -163 -193 -142 -165 -255 -67 -3 -28 -60 -63 -2 -2 -1 -2 0 -3 -1 0 -23 -65 -92 -82 -79 -49 -49 -32 -1 0 -7 -10 -50 -41 -16 -3 -12 -9 -53 0 -131 -47
0 0 0 0 0 0 0 0 -149 -176 -186 -241 -207 -155 -54 -17 -17 -65 -37 -1 -1 0 0 -13 -5 -8 -13 -29 -52 -70 -81 -68 -66 -22 -24 0 0 -16 -20 -32 -43 -41 -34 -132 -4 0 0 -3 0
0 0 0 0 0 0 0 -162 -194 -141 -184 -175 -177 -131 -50 -43 -112 -107 -102 -15 -6 -18 -19 -12 -13 -2 0 -20 -63 -86 -49 -65 -33 -8 -19 0 -1 -3 -13 -34 -40 -70 -83 -90 -82 -24 0 0 0
0 0 0 0 0 0 -93 -161 -151 -188 -208 -197 -134 -105 -38 -35 -73 -155 -176 -169 -43 0 -106 -70 -10 -2 -4 -2 -1 -46 -52 -41 -2 -22 -4 -2 0 -1 -14 -25 -35 -47 -69 -117 0 0 0 0 0
0 0 0 0 0 0 -50 -219 -134 -164 -198 -198 -173 -84 -41 -36 -161 -227 -150 -59 0 0 0 0 0 0 0 -6 -2 -17 -32 -3 -10 -3 -10 -3 -8 -15 -29 -39 -42 -49 -64 -92 0 0 0 0 0
0 0 0 0 0 0 -172 -220 -243 -142 -146 -250 -130 -95 -86 -56 -161 -279 0 0 0 0 0 0 0 0 0 -4 -5 -12 -19 -15 -7 -26 -37 -37 -39 -34 -30 -58 -37 -30 -31 -39 0 0 0 0 0
0 0 0 0 0 0 -209 -178 -285 -282 -163 -121 -122 -122 -92 -118 -240 -93 0 0 0 0 0 0 0 -1 0 -15 -12 -11 -7 -27 -32 -55 -58 -120 -135 -170 -150 -98 -64 -108 0 0 0 0 0 0 0
0 0 0 0 0 0 -195 -170 -196 -185 -137 -143 -174 -89 -134 -194 -201 0 0 0 0 0 0 -2 -3 0 0 0 -3 -13 -9 -53 -82 -79 -94 -144 -171 -172 -132 -158 -145 0 0 0 0 0 0 0 0
0 0 0 0 0 0 -97 -221 -280 -162 -94 -118 -137 -157 -122 -182 -195 -74 0 0 0 0 0 0 0 0 -24 -29 -8 -4 -42 -74 -81 -125 -134 -199 -152 -155 -204 0 0 0 0 0 0 0 0 0 0
0 0 0 0 0 -334 -210 -270 -249 -233 -205 -234 -132 -114 -92 -91 -133 0 0 0 0 0 0 -8 -10 -7 -46 -51 -47 -59 -98 -117 -122 -152 -133 -194 -188 -45 0 0 0 0 0 0 0 0 0 0 0
0 0 0 0 0 -340 -333 -264 -277 -253 -199 -165 -91 -48 -24 -114 -95 -46 0 0 -1 0 0 0 -13 -1 -17 -54 -89 -125 -136 -177 -134 -135 -106 -192 -97 0 0 0 0 0 0 0 0 0 0 0 0
0 0 -194 -292 -334 -297 -207 -257 -277 -232 -162 -157 -141 -52 -14 -48 -69 -241 0 0 0 0 0 -49 -34 -18 -50 -88 -117 -151 -160 -152 -125 -149 -110 -137 0 0 0 0 0 0 0 0 0 0 0 0 0
0 0 -74 -193 -225 -192 -216 -125 -171 -210 -158 -165 -155 -112 -98 -87 -69 -173 0 0 0 0 0 0 -50 -82 -83 -113 -141 -173 -181 -194 -134 -119 -84 -60 0 0 0 0 0 0 0 0 0 0 0 0 0
0 0 -44 -141 -154 -274 -66 -34 -256 -233 -159 -125 -165 -129 -134 -108 -55 -48 -91 -189 -45 0 -26 -48 -42 -70 -67 -114 -162 -157 -139 -103 -68 -61 -54 -98 0 0 0 0 0 0 0 0 0 0 0 0 0
0 0 0 -47 -156 -136 -46 -76 -227 -268 -197 -148 -141 -166 -140 -131 -87 -69 -87 -106 -131 -111 -59 -24 -17 -55 -77 -160 0 -159 -93 -45 -50 -122 -93 0 0 0 0 0 0 0 0 0 0 0 0 0 0
-73 -55 0 0 0 -121 -74 -51 -265 -239 -188 -159 -162 -205 -164 -122 -135 -138 -148 -98 -60 -71 -44 -14 -29 -63 -169 0 0 -154 -89 -76 -19 0 0 0 0 0 0 0 0 0 0 0 0 0 0 0 0
0 0 0 0 0 -77 -84 -100 -249 -204 -175 -200 -192 -210 -202 -141 -105 -156 -167 -162 -102 -63 -64 -50 -72 -150 -49 0 0 0 0 0 0 0 0 0 0 0 0 0 0 0 0 0 0 0 0 0 0
0 -58 -48 0 0 0 0 0 0 -326 -278 -263 -236 -222 -222 -177 -161 -201 -226 -234 -237 -203 -151 -161 -150 -226 -249 -247 -253 -79 0 0 0 0 0 0 0 0 0 0 0 0 0 0 0 0 0 0 0
0 0 0 -11 0 0 0 0 0 -439 -324 -259 -270 -238 -196 -159 -143 -167 -247 -269 -239 -263 -259 -254 -237 -258 -271 -280 0 0 0 0 0 0 0 0 0 0 0 0 0 0 0 0 0 0 0 0 0
0 0 0 0 0 -11 0 -29 0 0 -281 -282 -237 -235 -251 -244 -203 -140 -187 -256 -292 -303 -304 -256 -260 -282 -321 0 0 0 -161 -134 0 0 0 0 0 0 0 0 0 0 0 0 0 0 0 0 0
0 0 0 0 0 0 0 -42 0 0 0 -230 -217 -219 -235 -241 -233 -201 -195 -201 -256 -297 -371 -303 -280 -305 -325 0 0 0 0 -131 0 0 0 0 0 0 0 0 0 0 0 0 0 0 0 0 0
0 0 0 0 0 0 0 0 -63 0 0 0 0 -223 -263 -225 -277 -252 -226 -217 -251 -363 -398 -347 -330 -353 -345 0 0 0 0 0 0 0 0 0 0 0 0 0 0 0 0 0 0 0 0 0 0
0 0 0 0 0 -33 0 0 -18 0 0 0 0 -39 -271 -276 -261 -305 -278 -297 -318 -450 -433 -382 -333 -319 -355 0 0 0 0 0 0 0 0 0 0 0 0 0 0 0 0 0 0 0 0 0 0
0 0 -29 0 0 0 0 0 0 0 0 0 0 0 0 -365 -314 -310 -313 -290 -342 -446 -441 -411 -377 -318 -348 0 0 0 0 0 0 0 0 0 0 0 0 0 0 0 0 0 0 0 0 0 0
0 0 0 0 0 0 0 0 0 0 0 0 0 0 0 0 -431 -407 -370 -354 -376 -472 -455 -456 -378 -356 -346 -357 -140 0 0 0 0 0 0 0 0 0 0 0 0 0 0 0 0 0 0 0 0
0 0 0 -4 0 0 0 0 0 0 0 0 0 0 0 0 0 0 0 -528 -459 -466 -436 -443 -384 -350 -315 -328 -205 0 0 0 0 0 0 0 0 0 0 0 0 0 0 0 0 0 0 0 0
0 0 0 0 0 0 0 0 0 0 0 0 0 0 0 0 0 0 0 -411 -551 -465 -423 -431 -397 -322 -288 -301 0 0 0 0 0 0 0 0 0 0 0 0 0 0 0 0 0 0 0 0 0
0 0 0 -1 0 0 0 0 0 0 0 0 0 0 0 0 0 0 0 -577 -474 -417 -387 -373 -332 -278 -246 -283 0 0 0 0 0 0 0 0 0 0 0 0 0 0 0 0 0 0 0 0 0
Wind_Speed
4 4 2 2 3 1 3 4 2 4 3 1 3 2 3 6 4 3 4 5 15 19 21 21 20 20 20 21 22 23 23 23 24 23 22 22 20 19 19 19 17 19 21 22 24 23 22 21 21
4 2 3 2 3 4 4 2 5 3 4 3 6 4 6 4 3 2 3 8 15 18 19 21 20 21 21 21 23 23 23 23 24 23 22 21 20 20 19 19 18 20 22 25 25 23 22 20 19
3 4 0 2 1 4 2 4 1 2 2 1 6 5 5 6 4 5 4 14 13 19 18 19 21 20 22 23 24 24 24 24 22 23 23 22 20 20 19 19 19 20 21 25 24 23 22 19 17
1 2 3 1 3 4 5 2 1 3 2 3 6 6 3 2 8 7 3 17 12 16 16 19 20 23 24 25 25 24 24 23 23 21 23 22 20 20 18 18 19 20 21 23 23 22 20 16 15
3 2 1 1 4 5 4 4 1 4 2 0 6 6 5 2 7 10 10 8 11 9 12 15 20 21 22 25 26 26 23 23 22 21 22 21 19 18 17 18 18 20 21 22 21 20 17 16 14
2 1 1 2 5 4 2 2 2 1 2 3 5 7 4 3 9 8 10 11 12 12 12 10 15 18 15 20 17 23 21 22 19 20 20 19 17 17 17 16 17 18 19 19 18 18 16 14 14
2 2 2 3 5 4 2 5 2 4 3 1 4 6 5 8 9 11 12 13 13 15 23 21 17 28 24 12 8 16 20 17 17 17 18 15 15 15 16 16 16 16 17 17 16 16 16 16 15
3 1 1 3 2 5 1 2 4 4 2 1 1 5 6 6 12 13 14 16 16 15 17 19 25 19 14 6 5 13 17 15 14 17 16 14 14 13 13 15 16 17 17 16 18 17 18 17 16
3 1 2 4 3 4 2 4 2 3 3 1 3 1 9 13 15 16 13 14 14 12 15 16 20 20 19 10 8 10 13 15 14 16 14 11 9 12 12 13 15 16 17 17 18 18 19 17 15
3 2 6 6 4 5 4 2 4 3 3 1 1 8 11 12 13 14 9 12 12 13 12 12 15 14 14 9 8 4 7 6 8 9 10 9 9 9 10 12 15 17 17 17 18 18 16 10 6
4 5 3 8 12 4 1 2 4 4 4 5 7 11 9 12 11 11 9 12 10 14 14 15 15 14 13 11 8 6 6 7 7 9 8 8 7 7 6 7 6 7 10 8 10 10 7 8 7
3 9 8 5 4 5 4 5 5 4 3 5 12 14 11 12 11 11 11 10 14 14 18 9 5 7 8 9 8 9 8 8 7 7 10 8 6 6 6 5 6 6 5 9 7 6 9 9 10
4 5 5 6 4 3 6 2 4 4 1 9 15 14 12 11 12 10 10 9 8 14 11 10 7 8 9 9 7 7 7 7 7 7 7 6 7 7 6 7 6 6 7 7 7 7 7 8 9
4 5 5 2 3 3 4 3 1 3 7 10 12 12 8 12 14 14 13 13 15 15 14 10 9 8 8 7 7 6 6 7 6 5 6 7 6 7 8 7 7 7 6 6 7 6 7 6 6
3 6 2 3 2 2 6 0 2 8 9 10 11 10 12 12 13 15 16 14 15 14 12 9 8 5 5 6 6 5 6 6 5 6 7 7 8 9 9 7 7 7 6 9 7 7 6 5 5
1 2 3 1 6 3 3 4 4 9 10 10 9 10 10 14 16 15 16 15 14 14 13 10 8 8 8 8 6 5 5 5 5 5 6 9 9 10 9 8 7 7 7 7 5 6 6 4 4
3 2 2 2 3 4 4 3 6 11 10 9 10 8 8 10 13 14 16 17 18 15 14 13 11 9 8 6 5 5 6 5 5 4 5 8 9 10 10 8 8 8 6 6 6 4 4 4 3
3 2 2 2 2 3 4 8 7 13 13 12 9 8 9 11 15 15 16 14 15 15 12 11 9 9 8 5 5 4 5 5 5 5 5 8 8 12 10 8 8 8 7 6 5 5 4 3 2
3 2 2 1 2 4 6 8 8 14 12 13 12 12 12 14 11 13 16 15 15 15 14 13 12 11 9 7 7 5 7 6 5 4 6 8 10 11 10 8 8 8 7 7 7 5 5 3 1
4 1 2 3 2 4 1 8 4 16 19 18 17 15 16 13 11 12 16 16 18 18 18 16 15 14 13 10 8 5 6 5 5 6 7 8 9 11 10 9 9 8 7 8 7 5 4 2 1
4 5 4 1 1 2 3 4 1 7 12 14 16 16 15 15 15 15 16 18 17 17 17 17 16 15 14 12 8 4 6 3 4 6 7 8 10 11 10 9 9 8 7 7 7 6 5 4 3
3 5 5 2 2 2 3 3 4 4 11 13 17 16 18 18 17 15 17 18 18 18 13 14 14 14 13 13 11 12 9 9 7 7 6 7 8 7 9 10 9 9 6 7 6 5 5 4 3
5 2 2 2 3 1 2 3 3 0 7 16 19 19 19 19 19 20 20 18 16 15 14 14 14 15 14 15 14 11 11 7 5 5 9 8 8 9 10 10 10 9 7 8 8 6 5 4 4
4 3 5 4 2 1 1 3 3 5 6 3 10 18 19 19 19 20 17 16 15 13 14 15 16 15 15 15 15 14 12 9 7 8 7 8 8 7 9 11 10 9 9 10 8 6 4 4 4
2 3 0 1 1 3 3 2 8 3 8 8 9 11 17 18 17 17 18 17 16 17 17 15 17 17 16 16 15 14 13 14 12 11 8 11 9 7 11 12 11 10 10 9 5 5 3 4 4
4 3 4 3 3 1 0 4 3 3 8 7 7 9 8 16 17 18 19 18 18 18 18 17 18 17 16 16 17 12 13 10 9 8 6 7 9 10 12 11 12 14 11 9 6 4 5 5 5
4 2 1 7 2 0 2 5 8 3 4 3 6 5 4 8 13 16 15 16 15 16 19 19 17 15 16 17 14 12 11 11 9 9 8 10 10 9 11 12 14 12 10 9 9 7 7 5 5
1 8 3 1 4 3 2 3 4 4 3 4 3 5 7 3 8 10 12 14 14 14 13 14 15 15 15 15 13 11 12 14 10 9 11 10 10 12 13 14 14 11 7 7 8 5 3 5 5
4 2 3 4 1 3 2 3 6 5 2 4 3 4 5 6 5 8 10 10 11 11 12 13 14 15 14 14 13 12 12 12 9 10 11 11 12 14 13 10 6 4 5 6 5 4 6 9 6
2 6 6 4 4 0 1 6 3 6 5 6 8 4 4 4 5 5 7 9 10 11 12 13 12 13 12 12 12 10 10 9 10 8 10 11 12 13 12 11 7 8 6 7 7 11 8 9 9
Wind_Direction
118 109 88 52 218 272 240 248 302 286 261 4 36 243 1 61 346 349 351 217 153 153 153 151 144 140 135 129 124 121 121 123 123 118 115 116 117 116 112 106 102 105 102 108 117 112 101 96 92
119 110 73 96 219 213 227 254 200 280 282 313 70 325 56 6 78 131 113 189 158 148 153 152 144 141 136 132 129 128 129 127 124 117 117 115 116 114 110 106 104 103 103 106 110 107 102 98 93
102 38 244 92 121 236 266 228 241 288 318 283 99 26 78 287 247 164 174 180 157 150 152 151 142 142 140 139 138 135 131 126 122 120 120 119 117 113 109 107 105 103 105 107 107 106 102 98 93
83 62 88 324 261 248 232 249 228 198 285 67 105 80 147 330 327 360 155 166 156 152 147 144 146 146 148 146 138 133 128 126 120 124 122 119 119 114 112 110 107 105 106 109 108 106 102 96 93
48 66 69 331 264 262 248 285 200 170 155 200 158 141 117 46 52 61 68 78 106 82 144 147 155 151 151 145 138 128 127 120 121 129 119 120 121 114 112 111 109 107 103 105 109 109 107 103 98
90 63 85 271 257 262 264 242 110 96 174 150 111 122 110 125 103 82 76 74 80 75 70 40 152 127 102 108 113 118 117 116 129 122 123 120 119 112 110 113 111 105 104 104 105 104 101 103 99
125 132 206 261 275 294 262 159 189 166 234 297 128 129 126 117 98 98 88 94 95 85 96 92 48 78 77 4 49 103 107 116 116 116 110 110 107 110 115 115 113 115 110 106 107 102 98 97 98
113 123 174 244 294 283 230 145 165 180 187 156 336 178 164 132 123 103 95 94 101 112 114 115 120 108 115 182 73 72 95 101 110 106 101 102 103 104 103 106 107 112 110 109 102 103 103 95 91
140 72 269 261 237 264 184 202 150 99 135 52 1 137 126 124 120 102 103 101 103 109 115 123 127 129 139 154 128 112 106 104 108 102 105 109 121 118 124 103 110 105 106 104 104 101 91 90 83
133 192 227 213 240 261 177 182 152 185 139 125 82 106 118 125 128 121 122 117 117 115 116 124 130 127 120 114 108 89 105 125 115 120 123 126 123 128 120 112 110 104 104 105 104 94 95 99 96
163 233 221 248 244 262 273 176 158 179 226 191 188 157 134 126 129 120 113 128 126 129 138 143 136 144 143 146 157 154 147 131 127 122 127 120 117 128 120 125 113 115 113 107 98 96 91 95 92
210 247 249 285 233 179 201 135 152 179 313 274 161 162 145 136 130 147 144 146 144 149 152 152 135 138 145 148 156 163 149 144 143 142 138 136 130 135 142 127 128 117 105 104 101 102 101 92 85
216 266 295 285 239 207 129 127 117 15 9 137 141 157 154 138 134 129 127 129 124 155 154 154 146 149 146 146 159 134 136 136 139 140 145 144 145 146 139 141 136 123 121 122 117 105 102 95 85
207 266 283 356 8 115 105 116 196 188 171 144 147 168 156 152 153 139 147 153 160 159 169 180 174 166 145 139 141 140 140 135 151 152 156 157 155 147 151 148 134 126 137 118 111 111 105 92 92
275 301 29 17 100 96 139 351 257 158 186 162 174 172 164 158 158 160 158 166 176 172 177 196 191 162 140 140 144 147 154 146 155 170 183 181 173 165 158 147 145 138 127 117 115 108 98 105 101
348 56 355 224 161 198 219 276 101 167 190 184 195 188 177 170 171 170 176 174 192 184 193 199 196 189 182 168 159 157 157 168 173 179 189 194 180 164 159 152 146 147 135 125 126 115 115 111 91
351 211 162 158 178 139 198 257 138 182 190 214 198 199 180 176 176 174 179 185 184 199 197 197 198 191 185 166 158 164 171 181 181 179 178 182 172 168 162 159 145 154 142 138 137 133 125 118 105
211 232 240 119 201 232 192 243 174 188 197 212 211 201 197 198 192 180 180 184 188 196 205 206 200 194 180 153 155 162 182 185 185 186 190 175 175 171 165 153 150 158 146 142 146 125 88 99 77
159 202 336 261 173 203 237 265 212 192 207 214 222 210 217 217 193 188 184 183 187 194 199 204 195 191 172 164 173 183 190 183 189 187 184 183 181 170 163 161 158 164 158 146 134 119 134 128 49
164 99 313 315 8 216 272 293 214 189 209 211 207 218 223 218 214 199 191 191 195 195 196 195 197 189 191 187 185 180 180 193 189 182 188 195 179 175 174 166 167 160 144 142 159 158 135 114 151
211 169 172 272 256 171 1 293 278 196 221 216 229 226 229 232 222 210 197 199 200 201 196 195 195 191 194 192 167 124 136 124 177 190 193 191 191 182 179 168 162 157 160 165 162 153 149 157 166
260 184 176 110 31 291 344 302 278 223 215 215 226 224 225 215 224 221 207 206 205 210 201 201 194 193 192 183 186 185 196 194 197 189 188 193 188 174 170 169 160 166 164 155 149 152 153 156 174
234 169 64 105 169 160 155 210 273 18 244 228 225 223 224 221 209 216 217 208 205 203 194 197 196 197 193 191 198 195 202 197 160 162 179 189 195 186 172 164 166 162 161 155 147 143 156 185 159
120 92 55 73 95 201 208 210 263 209 228 280 245 226 220 218 212 215 211 209 206 194 188 190 194 199 195 196 197 202 209 193 165 170 176 190 191 186 184 172 172 161 155 154 142 137 174 210 179
128 116 333 105 129 217 124 196 248 237 245 250 265 241 221 213 215 209 204 201 201 197 196 197 201 205 196 193 193 196 202 202 192 186 186 186 184 190 185 175 164 158 146 138 119 122 191 213 185
171 190 164 190 182 280 20 237 239 217 284 287 276 280 250 214 212 212 211 206 204 202 200 200 205 208 198 197 196 192 197 201 201 189 176 193 191 194 173 168 157 151 147 132 136 180 196 185 187
152 180 87 103 25 154 245 276 270 307 322 332 331 328 304 225 222 223 220 213 209 203 204 205 206 209 204 203 196 198 193 205 198 179 192 205 197 172 162 156 154 149 148 161 166 181 191 191 207
228 144 135 49 170 235 245 274 260 324 348 327 1 330 307 279 215 214 213 210 210 210 207 204 208 209 207 204 199 201 203 208 198 181 194 179 167 155 157 158 158 163 159 164 171 197 162 209 215
147 172 66 121 151 202 243 242 214 240 275 304 290 269 272 275 245 215 214 212 207 199 198 203 206 207 209 205 201 207 209 210 193 182 172 169 147 157 159 145 138 156 145 169 178 205 203 221 223
207 175 156 151 193 10 281 262 256 254 272 286 287 272 271 259 254 229 206 201 199 204 203 206 205 210 211 208 203 204 197 183 181 172 159 156 153 156 153 155 151 153 162 171 198 215 217 222 227